Weather History for Yuma MCAS, AZ

Change the Weather History Date:

Sunday, August 4, 2013

  Actual Average Record
Temperature  
Mean Temperature 95 °F 95 °F  
Max Temperature 109 °F 107 °F 116 °F (1995)
Min Temperature 80 °F 83 °F 67 °F (1956)
Degree Days  
Heating Degree Days 0 0  
Month to date heating degree days 0 0  
Since 1 June heating degree days 0 0  
Since 1 July heating degree days 0 0  
Cooling Degree Days 30 30  
Month to date cooling degree days 119 120  
Year to date cooling degree days 2931 2666  
Since 1 June cooling degree days 1870 1754  
Growing Degree Days 44 (Base 50)    
Moisture  
Dew Point 43 °F    
Average Humidity 24    
Maximum Humidity 42    
Minimum Humidity 5    
Precipitation  
Precipitation 0.00 in 0.02 in 1.31 in (2005)
Month to date precipitation 0.00 0.06  
Year to date precipitation 1.58 1.68  
Sea Level Pressure  
Sea Level Pressure 29.80 in    
Wind  
Wind Speed 6 mph (South)    
Max Wind Speed 13 mph    
Max Gust Speed 17 mph    
Visibility 10 miles    
Events      
T = Trace of Precipitation, MM = Missing Value Source: NWS Daily Summary

Daily Weather History Graph

Daily Weather History Graph

Search for Another Location

Airport:

Trip Planner

Search our weather history database for the weather conditions in past years. The results will help you decide how hot, cold, wet, or windy it might be!

Date:

Astronomy

Aug. 04, 2013 Rise Set
Actual Time 5:54 AM MST 7:33 PM MST
Civil Twilight 5:28 AM MST 8:00 PM MST
Nautical Twilight 4:56 AM MST 8:32 PM MST
Astronomical Twilight 4:22 AM MST 9:05 PM MST
Moon 4:00 AM MST (8/4) 5:59 PM MST (8/4)
Length of Visible Light 14h 32m
Length of Day
13h 38m
Waning Crescent, 4% of the Moon is Illuminated
Aug 4
Waning Crescent
Aug 6
New
Aug 14
First Quarter
Aug 20
Full
Aug 28
Last Quarter

Hourly Weather History & Observations

Time (MST) Temp. Heat Index Dew Point Humidity Pressure Visibility Wind Dir Wind Speed Gust Speed Precip Events Conditions
12:57 AM 84.9 °F 83.6 °F 55.0 °F 36% 29.80 in 10.0 mi SSE 3.5 mph - N/A   Scattered Clouds
1:57 AM 82.9 °F 81.9 °F 54.0 °F 37% 29.79 in 10.0 mi WNW 3.5 mph - N/A   Partly Cloudy
2:57 AM 82.0 °F 81.2 °F 53.1 °F 37% 29.79 in 10.0 mi Calm Calm - N/A   Partly Cloudy
3:57 AM 84.0 °F - 48.9 °F 29% 29.79 in 10.0 mi Calm Calm - N/A   Scattered Clouds
4:57 AM 81.0 °F 80.7 °F 55.0 °F 41% 29.79 in 10.0 mi ENE 6.9 mph - N/A   Mostly Cloudy
5:57 AM 81.0 °F 80.4 °F 53.1 °F 38% 29.81 in 10.0 mi Calm Calm - N/A   Scattered Clouds
6:57 AM 82.0 °F 81.3 °F 54.0 °F 38% 29.83 in 10.0 mi NNE 3.5 mph - N/A   Scattered Clouds
7:57 AM 87.1 °F - 50.0 °F 28% 29.84 in 10.0 mi North 3.5 mph - N/A   Scattered Clouds
8:57 AM 91.0 °F - 46.0 °F 21% 29.86 in 10.0 mi SW 4.6 mph - N/A   Scattered Clouds
9:57 AM 93.0 °F - 48.0 °F 21% 29.86 in 10.0 mi SSW 5.8 mph - N/A   Partly Cloudy
10:57 AM 96.1 °F - 48.9 °F 20% 29.86 in 10.0 mi SW 5.8 mph - N/A   Partly Cloudy
11:57 AM 100.0 °F - 44.1 °F 15% 29.84 in 10.0 mi SSW 8.1 mph - N/A   Scattered Clouds
12:57 PM 105.1 °F - 28.0 °F 7% 29.83 in 10.0 mi SSE 8.1 mph - N/A   Scattered Clouds
1:57 PM 108.0 °F - 23.0 °F 5% 29.80 in 10.0 mi SSE 11.5 mph 17.3 mph N/A   Scattered Clouds
2:57 PM 108.0 °F - 25.0 °F 5% 29.78 in 10.0 mi Variable 6.9 mph - N/A   Scattered Clouds
3:57 PM 107.1 °F - 28.0 °F 6% 29.76 in 10.0 mi SW 4.6 mph - N/A   Scattered Clouds
4:57 PM 108.0 °F - 30.0 °F 7% 29.74 in 10.0 mi South 8.1 mph - N/A   Mostly Cloudy
5:57 PM 107.1 °F - 30.9 °F 7% 29.73 in 10.0 mi South 8.1 mph - N/A   Mostly Cloudy
6:57 PM 102.9 °F - 34.0 °F 9% 29.74 in 10.0 mi SSE 11.5 mph - N/A   Mostly Cloudy
7:57 PM 97.0 °F - 37.0 °F 12% 29.75 in 10.0 mi SSW 9.2 mph - N/A   Mostly Cloudy
8:57 PM 93.0 °F - 52.0 °F 25% 29.77 in 10.0 mi South 8.1 mph - N/A   Mostly Cloudy
9:57 PM 91.0 °F - 43.0 °F 19% 29.79 in 10.0 mi South 6.9 mph - N/A   Mostly Cloudy
10:57 PM 89.1 °F - 39.0 °F 17% 29.79 in 10.0 mi South 8.1 mph - N/A   Mostly Cloudy
11:57 PM 87.1 °F - 42.1 °F 21% 29.79 in 10.0 mi South 6.9 mph - N/A   Mostly Cloudy